Location: Unspecified
(50.7693°N, 0.0000°E)
Time: 10:30:56
(UTC+00:00)

Vanguard 2 - Pass Details

Date: 22 June 2019
Orbit: 553 x 2938 km, 32.9° (Epoch: 19 July)

Event Time Altitude Azimuth Distance (km) Brightness Sun altitude
Rises 14:14:23 0° 255° (WSW) 4,855 12.2 52.6°
Reaches altitude 10° 14:20:06 10° 230° (SW) 4,408 12.2 51.8°
Maximum altitude 14:24:40 13° 208° (SSW) 4,552 12.2 51.2°
Drops below altitude 10° 14:29:53 10° 187° (S) 5,148 12.2 50.5°
Sets 14:38:13 0° 164° (SSE) 6,576 12.4 49.4°
